Flag for Panama Weather past 2 weeks in Panama, Panama

Now
90 °F

Scattered clouds.


Feels Like: 103 °F
Forecast: 80 / 87 °F
Wind: 6 mph from Northwest

Location: Marcos A. Gelabert

Current Time: May 23, 2015 at 12:24:15 PM

Latest Report: May 23, 2015 at 11:00 AM


Visibility: 6 mi

Pressure: 29.89 "Hg

Humidity: 67%

Dew point: 77 °F

Location of PanamaLocation

Historic Weather in Panama — Graph

°F

Panama temperature yesterday

Maximum temperature yesterday: 91 °F (at 12:00 PM)
Minimum temperature yesterday: 77 °F (at 6:00 AM)
Average temperature yesterday: 83 °F

Past Weeks' High & Low Weather Summary

 TemperatureHumidityPressure
High95 °F (May 8, 2:00 PM)94% (May 16, 7:00 AM)29.95 "Hg (May 16, 7:00 AM)
Low75 °F (May 21, 5:00 PM)49% (May 13, 2:00 PM)29.71 "Hg (May 8, 3:00 PM)
Average84 °F75%29.83 "Hg
* Reported May 8 11:00 AM — May 23 11:00 AM, Panama, Weather by CustomWeather, © 2015

Note: Actual official high and low records may vary slightly from our data, if they occured in-between our weather recording intervals... More about our weather records

Advertising

Panama weather history for previous 24 hours

 ConditionsComfort  
Time TempWeatherWind HumidityBarometerVisibility
11:00 AM
Sat, May 23
90 °FScattered clouds.6 mph67%29.89 "Hg6 mi
10:00 AM88 °FScattered clouds.6 mph66%29.92 "Hg6 mi
9:00 AM86 °FPassing clouds.5 mph75%29.92 "Hg6 mi
8:00 AM82 °FPassing clouds.1 mph84%29.89 "Hg6 mi
7:00 AM81 °FScattered clouds.3 mph89%29.89 "Hg5 mi
6:00 AM79 °FScattered clouds.2 mph94%29.89 "Hg5 mi
10:00 PM
Fri, May 22
81 °FPassing clouds.2 mph89%29.89 "HgN/A
9:00 PM81 °FPassing clouds.5 mph89%29.89 "HgN/A
8:00 PM81 °FPassing clouds.5 mph89%29.86 "HgN/A
7:00 PM81 °FWarm.5 mph89%29.83 "HgN/A
6:00 PM81 °FWarm.6 mph89%29.83 "HgN/A
5:00 PM81 °FWarm.6 mph84%29.80 "HgN/A
4:00 PM82 °FWarm.6 mph79%29.80 "HgN/A
3:00 PM86 °FThunderstorms. Cloudy.3 mph70%29.83 "Hg6 mi
2:00 PM90 °FThunderstorms. Passing clouds.6 mph63%29.86 "Hg5 mi
1:00 PM90 °FScattered clouds.2 mph63%29.89 "HgN/A
12:00 PM91 °FScattered clouds.8 mph59%29.92 "HgN/A
Weather by CustomWeather, © 2015

See weather overviewHow to use our weather pages